Location: Clover
(42.5131°N, 114.6874°W)
Time: 12:55:33
(UTC+00:00)

ARIANE 6 FM1 Upper Stage - Pass Details

Date: 25 January 2026
Orbit: 522 x 609 km, 62.0° (Epoch: 11 February)

Event Time Altitude Azimuth Distance (km) Brightness Sun altitude
Rises 01:30:27 0° 208° (SSW) 2,718 6.9 -9.1°
Reaches altitude 10° 01:32:41 10° 205° (SSW) 1,814 5.9 -9.5°
Maximum altitude 01:36:43 63° 125° (SE) 604 2.6 -10.2°
Enters shadow 01:40:21 12° 45° (NE) 1,659 4.5 -10.8°
